Regional Weather Roundup
Issued by NWS

Home | Current Version | Previous Version | Text Only | Print | Product List | Glossary Off
Versions: 1 2 3 4 5 6 7 8 9 10 11 12 13 14 15 16 17 18 19 20 21 22 23 24 25 26 27

000
ASUS45 KCYS 301410
RWRWY

WYOMING REGIONAL WEATHER ROUNDUP
NATIONAL WEATHER SERVICE CHEYENNE WY
800 AM MDT TUE AUG 30 2016

NOTE:  "FAIR" INDICATES FEW OR NO CLOUDS BELOW 12,000 FEET
WITH NO SIGNIFICANT WEATHER AND/OR OBSTRUCTIONS TO VISIBILITY.

WYZ001-301500-
YELLOWSTONE NATIONAL PARK

CITY           SKY/WX    TMP DP  RH WIND       PRES   REMARKS
LK YELLOWSTONE   N/A     40  35  83 NW3       30.48S
W YELLOWSTONE  NOT AVBL

$$
WYZ002>013-054>058-071-098>099-301500-
NORTHERN WYOMING

CITY           SKY/WX    TMP DP  RH WIND       PRES   REMARKS
JACKSON        SUNNY     46  36  66 N7        30.39R
CODY           FAIR      64  37  36 S6        30.24S
GREYBULL       FAIR      67  41  38 S5        30.20R
WORLAND        FAIR      65  45  48 VRB3      30.21S
SHERIDAN       FAIR      61  48  62 CALM      30.17S
BUFFALO        FAIR      70  35  27 S10       30.26S
GILLETTE       FAIR      66  53  63 S13       30.26R
HULETT         FAIR      63  55  77 E3        30.29S
NEWCASTLE      FAIR      59  55  88 CALM      30.29F

$$
WYZ014>020-022>026-101>103-301500-
CENTRAL WYOMING

CITY           SKY/WX    TMP DP  RH WIND       PRES   REMARKS
BIG PINEY      FAIR      46  30  53 S3        30.44S
PINEDALE       FAIR      45  32  61 W8        30.45R
DUBOIS         FAIR      52  32  46 NW7       30.43F
LANDER         FAIR      61  35  37 SE3       30.34S
RIVERTON       FAIR      61  39  44 CALM      30.33S
CASPER         FAIR      57  49  74 CALM      30.34R
DOUGLAS        FAIR      57  51  80 CALM      30.33S

$$
WYZ021-027>030-104>119-301500-
SOUTHERN WYOMING

CITY           SKY/WX    TMP DP  RH WIND       PRES   REMARKS
EVANSTON       NOT AVBL
FORT BRIDGER   FAIR      54  26  34 CALM      30.43R
ROCK SPRINGS   FAIR      57  34  41 E7        30.40R
DIXON          FAIR      49  38  64 SE5       30.42S
RAWLINS        FAIR      55  38  52 E3        30.42S
SARATOGA       FAIR      46  37  71 SW5       30.43S
LARAMIE        FAIR      49  40  71 S5        30.44S
CHEYENNE       FAIR      52  44  74 W5        30.39R
TORRINGTON     FAIR      57  54  89 CALM      30.29S
PINE BLUFFS    FAIR      54  50  87 CALM      30.34S

$$




USA.gov is the U.S. government's official web portal to all federal, state and local government web resources and services.